User: anonymous   Login
Location: Unspecified
(0.0000°N, 0.0000°E)
Time: 07:23:07
(UTC+00:00)
Language:

NOSS 2-1 (C) - Orbit

View from above orbital plane
View from above orbital plane
View from above satellite
View from above satellite

Ground track
Ground track

The orbit data is extracted from the following two-line orbital elements,

1 20691U 90050C   17287.78843936 0.00000360  00000-0  87700-4 0    03
2 20691  63.3410 243.6045 0799000  32.9541 327.0459 13.41731640    00
Epoch (UTC): 14 October 2017 18:55:21
Eccentricity: 0.0799000
inclination: 63.3410°
perigee height: 505 km
apogee height: 1700 km
right ascension of ascending node: 243.6045°
argument of perigee: 32.9541°
revolutions per day: 13.41731640
mean anomaly at epoch: 327.0459°
orbit number at epoch: 0

The dashed part of the orbit path shows where the satellite is in the earth's shadow,  

DLR